Location: Newark
(57.7279°N, 5.6916°W)
Time: 08:52:35
(UTC+00:00)

N. Korean satellite - Pass Details

Date: 11 December 2019
Orbit: 454 x 507 km, 97.2° (Epoch: 26 January)

Event Time Altitude Azimuth Distance (km) Brightness Sun altitude
Rises 18:22:58 0° 207° (SSW) 2,604 10.8 -20.2°
Reaches altitude 10° 18:25:36 10° 227° (SW) 1,720 10.2 -20.6°
Maximum altitude 18:28:09 18° 271° (W) 1,315 9.7 -20.9°
Drops below altitude 10° 18:30:42 10° 315° (NW) 1,717 9.8 -21.2°
Sets 18:33:20 0° 335° (NNW) 2,597 10.5 -21.6°
